Weather History for KREO - February, 2014

Change the Weather History Date:

Sunday, February 9, 2014

  Actual Average Record
Temperature  
Mean Temperature 41 °F 32 °F  
Max Temperature 50 °F 43 °F 59 °F (1951)
Min Temperature 32 °F 21 °F -7 °F (1989)
Degree Days  
Heating Degree Days 24 33  
Month to date heating degree days 312 302  
Since 1 July heating degree days 4002 4151  
Cooling Degree Days 0 0  
Month to date cooling degree days 0 0  
Year to date cooling degree days 0 0  
Moisture  
Dew Point 30 °F    
Average Humidity 62    
Maximum Humidity 82    
Minimum Humidity 42    
Precipitation  
Precipitation 0.00 in 0.03 in 0.64 in (1960)
Month to date precipitation 0.36 0.26  
Year to date precipitation 0.49 0.91  
Sea Level Pressure  
Sea Level Pressure 29.96 in    
Wind  
Wind Speed 12 mph (WSW)    
Max Wind Speed 31 mph    
Max Gust Speed 39 mph    
T = Trace of Precipitation, MM = Missing Value Source: NWS Daily Summary

Daily Weather History Graph

Daily Weather History Graph

Search for Another Location

Airport or City:

Trip Planner

Search our weather history database for the weather conditions in past years. The results will help you decide how hot, cold, wet, or windy it might be!

Date:

Astronomy

Feb. 09, 2014 Rise Set
Actual Time 6:56 AM PST 5:15 PM PST
Civil Twilight 6:26 AM PST 5:45 PM PST
Nautical Twilight 5:53 AM PST 6:18 PM PST
Astronomical Twilight 5:20 AM PST 6:51 PM PST
Moon 12:57 PM PST (2/9) 3:07 AM PST (2/9)
Length of Visible Light 11h 18m
Length of Day
10h 19m
Waxing Gibbous, 78% of the Moon is Illuminated
Feb 9
Waxing Gibbous
Feb 14
Full
Feb 22
Last Quarter
Mar 1
New
Mar 8
First Quarter

Hourly Weather History & Observations

Time (PST) Temp. Windchill Dew Point Humidity Pressure Visibility Wind Dir Wind Speed Gust Speed Precip Events Conditions
12:52 AM 46.0 °F 36.5 °F 30.0 °F 54% 29.84 in - SW 31.1 mph 38.0 mph N/A   Unknown
1:52 AM 45.0 °F 36.2 °F 30.0 °F 56% 29.88 in - SW 24.2 mph 33.4 mph N/A   Unknown
2:52 AM 45.0 °F 36.4 °F 30.0 °F 56% 29.90 in - SSW 23.0 mph 33.4 mph N/A   Unknown
3:52 AM 46.0 °F 38.5 °F 30.0 °F 54% 29.90 in - SW 19.6 mph 32.2 mph N/A   Unknown
4:52 AM 45.0 °F 37.4 °F 30.0 °F 56% 29.92 in - SW 18.4 mph 26.5 mph N/A   Unknown
5:52 AM 44.1 °F 36.8 °F 30.0 °F 58% 29.94 in - SW 16.1 mph - N/A   Unknown
6:52 AM 43.0 °F 37.2 °F 28.9 °F 58% 29.96 in - SW 10.4 mph - N/A   Unknown
7:52 AM 43.0 °F 36.8 °F 28.9 °F 58% 29.97 in - SW 11.5 mph - N/A   Unknown
8:52 AM 46.0 °F 41.9 °F 28.0 °F 50% 29.98 in - South 8.1 mph - N/A   Unknown
9:52 AM 48.9 °F - 30.0 °F 48% 29.97 in - SSW 17.3 mph - N/A   Unknown
10:52 AM 48.9 °F - 30.9 °F 50% 30.00 in - SW 11.5 mph - N/A   Unknown
11:52 AM 50.0 °F - 28.0 °F 43% 29.98 in - WSW 8.1 mph - N/A   Unknown
12:52 PM 50.0 °F - 30.0 °F 46% 29.96 in - WSW 11.5 mph - N/A   Unknown
1:52 PM 48.9 °F - 30.0 °F 48% 29.94 in - WNW 5.8 mph - N/A   Unknown
2:52 PM 46.9 °F - 32.0 °F 56% 29.95 in - NNE 10.4 mph - N/A   Unknown
3:52 PM 45.0 °F 39.7 °F 30.0 °F 56% 29.95 in - NNE 10.4 mph - N/A   Unknown
4:52 PM 43.0 °F 39.5 °F 30.9 °F 62% 29.95 in - NNE 5.8 mph - N/A   Unknown
5:52 PM 39.9 °F 35.1 °F 32.0 °F 73% 29.96 in - North 6.9 mph - N/A   Unknown
6:52 PM 39.9 °F 33.4 °F 30.9 °F 70% 29.96 in - North 10.4 mph - N/A   Unknown
7:52 PM 39.9 °F 37.8 °F 30.9 °F 70% 29.98 in - North 3.5 mph - N/A   Unknown
8:52 PM 39.9 °F 35.8 °F 30.9 °F 70% 29.99 in - North 5.8 mph - N/A   Unknown
9:52 PM 37.9 °F - 30.0 °F 73% 30.00 in - Calm Calm - N/A   Unknown
10:52 PM 33.1 °F 30.0 °F 28.9 °F 85% 30.02 in - NE 3.5 mph - N/A   Unknown
11:52 PM 32.0 °F 26.4 °F 28.9 °F 88% 30.04 in - SE 5.8 mph - N/A   Unknown